Terminal Aerodrome Forecast
Issued by NWS

Home | Current Version | Previous Version | Text Only | Print | Product List | Glossary On
Versions: 1 2 3 4 5 6 7 8 9 10 11 12 13 14 15 16 17 18
000
FTUS46 KSTO 291100 RRA
TAFRDD
TAF
KRDD 291141Z 2912/3012 35005KT P6SM SCT250
      TEMPO 2913/2915 3SM BR=

USA.gov is the U.S. government's official web portal to all federal, state and local government web resources and services.